Regional Weather Roundup
Issued by NWS

Home | Current Version | Previous Version | Text Only | Print | Product List | Glossary Off
Versions: 1 2 3 4 5 6 7 8 9 10 11 12 13 14 15 16 17 18 19 20 21 22 23 24 25 26 27 28 29 30 31 32 33 34 35 36 37 38 39 40 41 42 43 44 45 46 47 48 49 50

000
ASUS45 KABQ 231801
RWRNM
NEW MEXICO REGIONAL WEATHER ROUNDUP
NATIONAL WEATHER SERVICE ALBUQUERQUE NM
1200 PM MDT MON OCT 23 2017

NOTE: "FAIR" MEANS FEW OR NO CLOUDS BELOW 12,000 FEET AGL WITH NO
       SIGNIFICANT WEATHER OR OBSTRUCTIONS TO VISION.

      THIS PRODUCT IS RELEASED AS TWO VERSIONS.  ONE VERSION NEAR
      THE TOP OF THE HOUR CONTAINING PRELIMINARY DATA FROM ALBUQUERQUE
      AND OTHER STATIONS.  A FINAL VERSION WITH ADDITIONAL DATA IS
      ISSUED ABOUT 10 MINUTES AFTER THE HOUR.

NMZ501-503-504-510>518-231900-
NORTHWEST PLATEAU/NORTHCENTRAL MOUNTAINS

CITY           SKY/WX    TMP DP  RH WIND       PRES   REMARKS
FARMINGTON     FAIR      62  23  22 W17G25    30.41F
6HR MIN TEMP:  34; 6HR MAX TEMP:  62;

LOS ALAMOS     FAIR      58  24  27 E8        30.48S
SANTA FE       FAIR      64  25  22 N14G21    30.42F
6HR MIN TEMP:  38; 6HR MAX TEMP:  64;

TAOS           FAIR      58  23  26 CALM      30.48F
ANGEL FIRE     FAIR      58  24  27 E5        30.49F

$$
NMZ402-403-502-505>509-231900-
WESTCENTRAL MOUNTAINS/SOUTHWEST MOUNTAINS

CITY           SKY/WX    TMP DP  RH WIND       PRES   REMARKS
GALLUP         FAIR      66  23  19 CALM      30.49F
6HR MIN TEMP:  26; 6HR MAX TEMP:  66;

GRANTS         FAIR      65  25  21 N3        30.49F
SILVER CITY    FAIR      76  13   9 SW5       30.38F

$$
NMZ407-409-411-412-231900-
SOUTHERN DESERTS

CITY           SKY/WX    TMP DP  RH WIND       PRES   REMARKS
DEMING         FAIR      76  25  15 VRB3      30.33F
6HR MIN TEMP:  41; 6HR MAX TEMP:  76;

LAS CRUCES     FAIR      76  20  12 N9        30.32F
HOLLOMAN AFB   FAIR      78  25  14 NW17      30.29F
ALAMOGORDO     FAIR      75  25  15 N17G23    30.29F
T OR C         FAIR      71  23  16 NE12      30.34F
6HR MIN TEMP:  49; 6HR MAX TEMP:  71;


$$
NMZ519>523-231900-
CENTRAL VALLEYS/CENTRAL HIGHLANDS

CITY           SKY/WX    TMP DP  RH WIND       PRES   REMARKS
ALBUQUERQUE    FAIR      67  23  19 N12       30.41F
6HR MIN TEMP:  50; 6HR MAX TEMP:  67;

DOUBLE EAGLE   MOSUNNY   66  27  22 NW7       30.44S
MORIARTY ARPT  FAIR      71  26  18 NW23G30   30.38F
6HR MIN TEMP:  50; 6HR MAX TEMP:  71;

CLINES CORNERS NOT AVBL
BELEN          FAIR      68  24  19 NW7       30.40F
6HR MIN TEMP:  41; 6HR MAX TEMP:  68;

SOCORRO        FAIR      71  22  15 N14G20    30.36F
6HR MIN TEMP:  44; 6HR MAX TEMP:  71;


$$
NMZ524>526-539-540-231900-
SOUTHCENTRAL MOUNTAINS

CITY           SKY/WX    TMP DP  RH WIND       PRES   REMARKS
RUIDOSO        FAIR      70  25  18 NW9G20    30.43R

$$
NMZ527>531-231900-
NORTHEAST HIGHLANDS/NORTHEAST PLAINS

CITY           SKY/WX    TMP DP  RH WIND       PRES   REMARKS
LAS VEGAS      FAIR      70  26  19 E10       30.39S
6HR MIN TEMP:  49; 6HR MAX TEMP:  70;

RATON          FAIR      65  28  24 NE20G25   30.37S
6HR MIN TEMP:  35; 6HR MAX TEMP:  68;

CLAYTON        FAIR      59  34  39 NE22G32   30.38R
6HR MIN TEMP:  48; 6HR MAX TEMP:  63;


$$
NMZ532>537-231900-
EASTCENTRAL PLAINS

CITY           SKY/WX    TMP DP  RH WIND       PRES   REMARKS
SANTA ROSA     FAIR      73  30  19 NE16G22   30.30S
TUCUMCARI      LGT RAIN  73  33  23 NE24G35   30.27R
6HR MIN TEMP:  43; 6HR MAX TEMP:  76; 6HR PCP: TRACE;

CANNON AFB     NOT AVBL
CLOVIS AIRPORT   N/A     70  35  27 NE28G36   30.27R

$$
NMZ028-029-538-231900-
SOUTHEAST PLAINS

CITY           SKY/WX    TMP DP  RH WIND       PRES   REMARKS
ROSWELL        FAIR      77  37  23 N10       30.21F
6HR MIN TEMP:  42; 6HR MAX TEMP:  77;

ARTESIA        FAIR      75  34  22 N6        30.21F
CARLSBAD       FAIR      77  36  22 N10       30.19S
6HR MIN TEMP:  43; 6HR MAX TEMP:  77;

HOBBS          SUNNY     79  34  19 N13       30.18S


$$




USA.gov is the U.S. government's official web portal to all federal, state and local government web resources and services.